Location: Gleizolles
(44.4833°N, 6.7667°E)
Time: 21:28:21
(UTC+00:00)

Tiros 1 despin weight - Pass Details

Date: 01 July 2024
Orbit: 576 x 620 km, 48.2° (Epoch: 19 July)

Event Time Altitude Azimuth Distance (km) Brightness Sun altitude
Rises 09:25:21 0° 253° (WSW) 2,864 ? 55.7°
Reaches altitude 10° 09:27:38 10° 255° (WSW) 1,967 ? 56.0°
Maximum altitude 09:32:10 76° 341° (NNW) 639 ? 56.7°
Drops below altitude 10° 09:36:45 10° 68° (ENE) 1,988 ? 57.4°
Sets 09:39:05 0° 70° (ENE) 2,896 ? 57.8°
